Weather History for Lancaster, CA

Change the Weather History Date:

Friday, June 7, 2013

  Actual Average Record
Temperature  
Mean Temperature 84 °F 74 °F  
Max Temperature 107 °F 88 °F 107 °F (2013)
Min Temperature 61 °F 59 °F 40 °F (1988)
Degree Days  
Heating Degree Days 0    
Month to date heating degree days 0  
Since 1 June heating degree days 0  
Since 1 July heating degree days 2717  
Cooling Degree Days 19    
Month to date cooling degree days 104  
Year to date cooling degree days 362  
Since 1 June cooling degree days 104  
Growing Degree Days 34 (Base 50)    
Moisture  
Dew Point 41 °F    
Average Humidity 30    
Maximum Humidity 52    
Minimum Humidity 7    
Precipitation  
Precipitation 0.00 in 0.01 in 0.00 in (2014)
Month to date precipitation 0.00 0.02  
Year to date precipitation 1.10 4.88  
Since 1 July precipitation 1.26 7.35  
Snow  
Snow 0.00 in - 0.00 in ()
Month to date snowfall 0.0  
Since 1 June snowfall 0.0  
Since 1 July snowfall 0.0  
Snow Depth 0.00 in    
Sea Level Pressure  
Sea Level Pressure 29.76 in    
Wind  
Wind Speed 8 mph (WSW)    
Max Wind Speed 26 mph    
Max Gust Speed 30 mph    
Visibility 10 miles    
Events      
T = Trace of Precipitation, MM = Missing Value Source: NWS Daily Summary

Daily Weather History Graph

Daily Weather History Graph

Search for Another Location

Airport:

Trip Planner

Search our weather history database for the weather conditions in past years. The results will help you decide how hot, cold, wet, or windy it might be!

Date:

Astronomy

Jun. 07, 2013 Rise Set
Actual Time 5:39 AM PDT 8:04 PM PDT
Civil Twilight 5:10 AM PDT 8:33 PM PDT
Nautical Twilight 4:33 AM PDT 9:10 PM PDT
Astronomical Twilight 3:54 AM PDT 9:49 PM PDT
Moon 5:02 AM PDT (6/7) 7:24 PM PDT (6/7)
Length of Visible Light 15h 23m
Length of Day
14h 25m
Waning Crescent, 1% of the Moon is Illuminated
Jun 7
Waning Crescent
Jun 8
New
Jun 16
First Quarter
Jun 23
Full
Jun 29
Last Quarter

Hourly Weather History & Observations

Time (PDT) Temp. Dew Point Humidity Pressure Visibility Wind Dir Wind Speed Gust Speed Precip Events Conditions
12:56 AM 75.0 °F 46.9 °F 37% 29.80 in 10.0 mi WSW 10.4 mph - N/A   Clear
1:56 AM 73.9 °F 46.9 °F 38% 29.79 in 10.0 mi SW 4.6 mph - N/A   Clear
2:56 AM 66.9 °F 45.0 °F 45% 29.78 in 10.0 mi SE 3.5 mph - N/A   Clear
3:56 AM 64.0 °F 44.1 °F 48% 29.78 in 10.0 mi Calm Calm - N/A   Clear
4:56 AM 62.1 °F 43.0 °F 50% 29.79 in 10.0 mi NE 5.8 mph - N/A   Clear
5:56 AM 63.0 °F 45.0 °F 52% 29.81 in 10.0 mi SSW 4.6 mph - N/A   Clear
6:56 AM 69.1 °F 45.0 °F 42% 29.81 in 10.0 mi WNW 3.5 mph - N/A   Clear
7:56 AM 78.1 °F 46.9 °F 33% 29.81 in 10.0 mi Calm Calm - N/A   Clear
8:56 AM 84.9 °F 45.0 °F 25% 29.81 in 10.0 mi Calm Calm - N/A   Clear
9:56 AM 90.0 °F 46.0 °F 22% 29.80 in 10.0 mi South 3.5 mph - N/A   Clear
10:56 AM 95.0 °F 44.1 °F 17% 29.79 in 10.0 mi Variable 5.8 mph - N/A   Clear
11:56 AM 100.0 °F 39.0 °F 12% 29.77 in 10.0 mi ENE 10.4 mph - N/A   Clear
12:31 PM 100.4 °F 37.4 °F 11% 29.84 in 8.0 mi Variable 5.8 mph - N/A   Partly Cloudy
12:56 PM 104.0 °F 36.0 °F 10% 29.75 in 10.0 mi ENE 8.1 mph - N/A   Clear
1:56 PM 105.1 °F 28.9 °F 7% 29.73 in 10.0 mi ENE 6.9 mph - N/A   Clear
2:56 PM 104.0 °F 28.0 °F 7% 29.72 in 10.0 mi Calm Calm - N/A   Clear
3:56 PM 105.1 °F 28.0 °F 7% 29.70 in 10.0 mi West 5.8 mph 16.1 mph N/A   Clear
4:56 PM 104.0 °F 35.1 °F 9% 29.69 in 10.0 mi WSW 20.7 mph 26.5 mph N/A   Clear
5:56 PM 99.0 °F 36.0 °F 11% 29.70 in 10.0 mi WSW 21.9 mph - N/A   Clear
6:56 PM 93.0 °F 41.0 °F 16% 29.72 in 10.0 mi WSW 18.4 mph - N/A   Clear
7:56 PM 88.0 °F 44.1 °F 22% 29.73 in 10.0 mi WSW 17.3 mph - N/A   Clear
8:56 PM 84.9 °F 41.0 °F 21% 29.73 in 10.0 mi WSW 11.5 mph - N/A   Clear
9:56 PM 82.9 °F 45.0 °F 26% 29.73 in 10.0 mi WSW 13.8 mph - N/A   Clear
10:56 PM 82.0 °F 46.0 °F 28% 29.73 in 10.0 mi WSW 8.1 mph - N/A   Clear
11:56 PM 82.9 °F 46.0 °F 27% 29.72 in 10.0 mi WSW 11.5 mph - N/A   Clear